Regional Weather Roundup
Issued by NWS Sterling, VA

Home | Current Version | Previous Version | Text Only | Print | Product List | Glossary On
Versions: 1 2 3 4 5 6 7 8 9 10 11 12 13 14 15 16 17 18 19 20 21 22 23 24 25 26 27
000
ASUS41 KLWX 161711
RWRLWX

REGIONAL WEATHER ROUNDUP
NATIONAL WEATHER SERVICE BALTIMORE MD/WASHINGTON DC
100 PM EDT WED AUG 16 2017

Note: "FAIR" indicates few or no clouds below 12,000 feet
with no significant weather and/or obstructions to visibility.
 TC=TEMPERATURE CELSIUS

 * =Non NWS site. Station does not report precipitation (e.g. rain,
    snow, etc.), thunder, or fog.

DCZ001-MDZ009-015-VAZ040>042-051-053>054-161800-
WASHINGTON METRO

CITY           SKY/WX    TMP DP  RH WIND       PRES   REMARKS
WASHINGTON NAT PTSUNNY   88  71  57 NW9       30.00F HX  94
DULLES         PTSUNNY   85  72  65 MISG      30.02S HX  91
ANDREWS AFB    MOSUNNY   85  71  63 NW7       30.00F HX  90
FT BELVOIR     MOSUNNY   87  70  56 NW6       30.00S HX  92
QUANTICO       PTSUNNY   83  75  77 S6        30.01F HX  90
COLLEGE PARK*  MOSUNNY   84  71  63 NW3       29.99F
LEESBURG*      SUNNY     86  73  66 NE5       30.03F HX  93
MANASSAS*      MOSUNNY   88  71  57 N8        30.02S HX  94
GAITHERSBURG*  MOSUNNY   85  70  60 CALM      30.04S

$$

MDZ006>007-011-014-161800-
BALTIMORE METRO

CITY           SKY/WX    TMP DP  RH WIND       PRES   REMARKS
BWI AIRPORT    PTSUNNY   83  72  69 NW5       29.99F
MD SCIENCE CTR   N/A     88  69  53 MISG      29.99F HX  92
MARTIN STATE   PTSUNNY   82  79  89 SE6       30.00F HX  93
ANNAPOLIS      MOSUNNY   82  79  90 SE9       29.99F HX  92
FORT MEADE*    MOSUNNY   82  72  69 N3        30.02S

$$

MDZ012-015-019>023-161800-
MARYLAND EASTERN SHORE

CITY           SKY/WX    TMP DP  RH WIND       PRES   REMARKS
OCEAN CITY     MOSUNNY   81  73  76 SE7       30.00S
SALISBURY      MOSUNNY   84  71  65 CALM      29.99F
BAY BRIDGE AP* MOSUNNY   81  73  78 W3        30.00S
CAMBRIDGE*     SUNNY     84  73  70 N6        29.99F HX  91
EASTON*        MOSUNNY   84  73  70 W6        30.03  HX  91

$$

MDZ017>025-161800-
SOUTHERN MARYLAND

CITY           SKY/WX    TMP DP  RH WIND       PRES   REMARKS
PATUXENT RIVER MOSUNNY   86  74  67 VRB3      30.00F HX  94
ST INIGOES     MOSUNNY   83  77  82 SW5       29.99F HX  92
LEONARDTOWN*   SUNNY     84  72  65 CALM      30.01F

$$

MDZ003>005-161800-
NORTH CENTRAL MARYLAND

CITY           SKY/WX    TMP DP  RH WIND       PRES   REMARKS
FREDERICK*     MOSUNNY   84  70  61 CALM      30.04F
HAGERSTOWN APT MOSUNNY   82  68  62 CALM      30.03F
WESTMINSTER*   MOSUNNY   82  68  61 NW3       30.04S

$$

MDZ501>502-161800-
WESTERN MARYLAND

CITY           SKY/WX    TMP DP  RH WIND       PRES   REMARKS
OAKLAND*       MOSUNNY   73  63  68 NW5       30.14S
CUMBERLAND*    MOSUNNY   82  70  65 SE5       30.07F

$$

VAZ025>031-161800-
SHENANDOAH VALLEY

CITY           SKY/WX    TMP DP  RH WIND       PRES   REMARKS
WINCHESTER*    SUNNY     82  66  57 NW5       30.04S
FRONT ROYAL*   SUNNY     84  70  61 CALM      30.04S
LURAY*         MOSUNNY   86  68  54 CALM      30.04F
NEW MARKET*    CLOUDY   N/A N/A N/A N3        30.03S
STAUNTON*      MOSUNNY   82  67  59 SW5       30.09S
WAYNESBORO*    SUNNY     83  66  55 CALM      30.09S

$$

WVZ021-048>050-054>055-161800-
EASTERN WEST VIRGINIA PANHANDLE

CITY           SKY/WX    TMP DP  RH WIND       PRES   REMARKS
MARTINSBURG    SUNNY     84  67  56 NE3       30.02F
PETERSBURG*    SUNNY     86  70  58 CALM      30.05S HX  91

$$

VAZ036>039-050-161800-
CENTRAL FOOTHILLS

CITY           SKY/WX    TMP DP  RH WIND       PRES   REMARKS
CHARLOTTESVILL SUNNY     88  65  46 SW5       30.03F HX  90
CULPEPER*      PTSUNNY   88  70  55 N7        30.03S HX  93
ORANGE*        SUNNY     86  68  54 W5        30.02F
GORDONSVILLE*  SUNNY     86  70  58 NE5       30.02S HX  91
WARRENTON*     MOSUNNY   89  67  48 N3        30.02S HX  91

$$

VAZ055>057-161800-
NORTH AND CENTRAL PIEDMONT

CITY           SKY/WX    TMP DP  RH WIND       PRES   REMARKS
FREDERICKSBRG* SUNNY     86  73  65 S3        30.00S HX  93
STAFFORD*      MOSUNNY   86  70  58 W6        30.05S HX  90

$$

NCZ024-NYZ072-PAZ021-071-VAZ022-071-161800-
OTHER REGIONAL OBSERVATIONS

CITY           SKY/WX    TMP DP  RH WIND       PRES   REMARKS
NEW YORK CITY  SUNNY     84  60  44 VRB5      29.99S
PHILADELPHIA   PTSUNNY   83  67  58 S5        29.98F
PITTSBURGH     MOSUNNY   82  60  47 N5        30.09S
ROANOKE        MOSUNNY   86  67  52 VRB5      30.09F
RICHMOND       MOSUNNY   86  72  62 VRB3      30.02S HX  92
RALEIGH        MOSUNNY   88  71  57 NE7       30.04F HX  94

$$

ANZ530>537-161800-
MARINE OBSERVATIONS

STATION/POSITION TIME  TEMP    WIND        PRES
                       AIR SEA DIR/SP/G
                 (UTC) (F)     (DEG/KT/KT) (MB)
THOMAS PT LIGHT  1700   78 79  140/  4/  5   N/A
BALT KEY BRIDGE  1642   80     140/  5/  6 1015.3F
COVE POINT       1642   78      70/  3/  5 1016.5F
LEWISETTA        1642   81 81   30/  4/  7 1015.9F
SOLOMONS ISLAND  1642   84 81  260/  5/  6   N/A
PINEY POINT      1642          300/  3/  4   N/A

$$





USA.gov is the U.S. government's official web portal to all federal, state and local government web resources and services.